User: anonymous
Location: Caltech
(34.1382°N, 118.1253°W)
Time: 06:03:39
(UTC-07:00)
Language:

Cosmos 44 Rocket - Orbit

View from above orbital plane
View from above orbital plane
View from above satellite
View from above satellite

Ground track
Ground track

The orbit data is extracted from the following two-line orbital elements,

1 00877U 64053B   14293.08798424  .00000429  00000-0  11448-3 0  7580
2 00877 065.0795 249.2278 0055079 143.8145 216.6701 14.58915162659827
Epoch (UTC): 20 October 2014 02:06:41
Eccentricity: 0.0055079
inclination: 65.0795°
perigee height: 658 km
apogee height: 735 km
right ascension of ascending node: 249.2278°
argument of perigee: 143.8145°
revolutions per day: 14.58915162
mean anomaly at epoch: 216.6701°
orbit number at epoch: 65982

The dashed part of the orbit path shows where the satellite is in the earth's shadow,  

DLR